This is the latest recevied weather packets stored in our database for station/object K5KHP. If no packets are shown the sender has not sent any weather packets the latest 10 day(s).
| Time | Temp. | Humidity | Pressure | Rain* | Wind** | Luminosity | Snow |
|---|---|---|---|---|---|---|---|
| 1777598451 | 18.89° C | 76% | 1009.7 hPa | 0 mm | - | 94 W/m² | - |
| 1777598150 | 18.89° C | 76% | 1009.8 hPa | 0 mm | - | 103 W/m² | - |
| 1777597845 | 19.44° C | 75% | 1009.6 hPa | 0 mm | - | 113 W/m² | - |
| 1777597539 | 19.44° C | 74% | 1010.1 hPa | 0 mm | - | 125 W/m² | - |
| 1777597236 | 19.44° C | 74% | 1009.7 hPa | 0 mm | - | 132 W/m² | - |
| 1777596930 | 20° C | 73% | 1009.8 hPa | 0 mm | - | 143 W/m² | - |
| 1777596628 | 20° C | 72% | 1009.9 hPa | 0 mm | - | 159 W/m² | - |
| 1777596324 | 20° C | 70% | 1009.8 hPa | 0 mm | - | 168 W/m² | - |
| 1777596022 | 20° C | 71% | 1009.9 hPa | 0 mm | - | 181 W/m² | - |
| 1777595716 | 20° C | 72% | 1009.8 hPa | 0 mm | - | 195 W/m² | - |
| 1777595412 | 20° C | 72% | 1010.1 hPa | 0 mm | - | 211 W/m² | - |
| 1777595109 | 20° C | 69% | 1009.9 hPa | 0 mm | - | 232 W/m² | - |
| 1777594805 | 20° C | 69% | 1010 hPa | 0 mm | - | 255 W/m² | - |
| 1777594501 | 19.44° C | 71% | 1010 hPa | 0 mm | - | 261 W/m² | - |
| 1777594197 | 20° C | 70% | 1010 hPa | 0 mm | - | 199 W/m² | - |
| 1777593893 | 19.44° C | 71% | 1010 hPa | 0 mm | - | 263 W/m² | - |
| 1777593589 | 20° C | 70% | 1009.9 hPa | 0 mm | - | 339 W/m² | - |
| 1777593284 | 20° C | 68% | 1010 hPa | 0 mm | - | 223 W/m² | - |
| 1777592978 | 20° C | 68% | 1009.8 hPa | 0 mm | - | 186 W/m² | - |
| 1777592668 | 20.56° C | 66% | 1009.9 hPa | 0 mm | - | 210 W/m² | - |
| 1777592364 | 20° C | 68% | 1010 hPa | 0 mm | - | 393 W/m² | - |
| 1777592060 | 20° C | 67% | 1010.1 hPa | 0 mm | - | 352 W/m² | - |
| 1777591758 | 20.56° C | 67% | 1010 hPa | 0 mm | - | 364 W/m² | - |
| 1777591453 | 20° C | 66% | 1010 hPa | 0 mm | - | 354 W/m² | - |
| 1777591149 | 20° C | 67% | 1010.1 hPa | 0 mm | - | 350 W/m² | - |
* Rain latest hour (hover to see other rain measurements)
** Current wind speed in m/s (hover to see current wind gust speed)